Location: Unspecified
(53.6186°N, 1.3184°W)
Time: 08:24:49
(UTC+01:00)

ISS - Pass Details

Date: 16 September 2017
Orbit: 401 x 407 km, 51.6° (Epoch: 23 September)

Event Time Altitude Azimuth Distance (km) Brightness Sun altitude
Exits shadow 05:02:05 34° 242° (WSW) 698 -3.2 -14.8°
Maximum altitude 05:03:01 45° 196° (SSW) 571 -3.4 -14.7°
Drops below altitude 10° 05:06:11 10° 123° (ESE) 1,470 -0.6 -14.3°
Sets 05:08:18 0° 117° (ESE) 2,329 0.6 -14.0°
